SCP
0 -0 -0 -0 -0 -0 -0 -0 -0 -0 -0 -0 -0 -0 -0 0 0 0 0 0 0 0 0 0 0 0 0 0 0 0 0 -0 0 0 0 0 0 -0 0 0 0 0 0
0 0 -0 -0 -0 -0 -0 -0 -0 -0 -0 -0 -0 -0 -0 -0 -0 -0 -0 0 0 0 0 0 0 0 0 0 0 0 -0 0 0 0 0 0 0 0 0 0 0 0 0
0 0 0 0 -0 -0 -0 -0 -0 -0 -0 -0 -0 -0 -0 -0 -0 -0 -0 -0 -0 0 0 0 0 0 0 0 0 -0 -0 0 0 0 0 -0 0 0 0 0 0 0 0
0 0 0 -0 -0 -0 -0 -0 -0 -0 -0 -0 -0 -0 -0 -0 -0 -0 -0 -0 -0 -0 -0 0 0 0 0 0 0 0 0 0 -0 0 -0 0 0 0 0 0 0 0 0
0 0 0 -0 -0 -0 -0 -0 -0 -0 -0 -0 -0 -0 -0 -0 -0 -0 -0 -0 -0 -0 0 0 0 0 0 0 0 0 0 0 0 -0 -0 0 0 0 0 0 0 0 -0
0 0 0 0 0 0 -0 -0 -0 -0 -0 -0 -0 -0 -0 -0 -0 -0 0 -0 -0 -0 -0 0 0 0 0 0 0 0 0 0 0 -0 -0 0 0 0 0 0 0 0 -0
0 0 0 0 0 0 0 0 0 0 -0 -0 0 0 -0 -0 -0 0 0 0 0 0 0 0 0 0 0 0 0 0 0 0 0 0 0 0 0 0 0 0 0 0 -0
0 0 0 0 0 0 0 0 0 0 0 0 0 0 0 0 0 0 0 0 0 0 0 0 0 0 0 0 0 0 0 0 0 0 0 0 0 0 0 0 0 0 0
0 0 0 0 0 0 0 0 0 0 0 0 0 0 0 0 0 0 0 0 0 0 0 0 0 0 0 0 0 0 0 0 0 0 0 0 0 0 0 0 0 0 0
0 0 0 0 0 0 0 0 0 0 0 0 0 0 0 0 0 0 0 0 0 0 0 0 0 0 0 0 0 0 0 0 0 0 0 0 0 0 0 0 0 0 0
0 0 0 0 0 0 0 0 0 0 0 0 0 0 0 0 0 0 0 0 0 0 0 0 0 0 0 0 0 0 0 0 0 0 0 0 0 0 0 0 0 0 0
0 0 0 0 0 0 0 0 0 0 0 0 0 0 0 0 0 0 0 0 0 0 0 0 0 0 0 0 0 0 0 0 0 0 0 0 0 0 0 0 0 0 0
0 0 0 0 0 0 0 0 0 0 0 0 0 0 -0 -0 0 0 0 0 0 0 0 0 0 0 0 0 0 0 0 0 0 0 0 0 0 0 0 0 0 0 0
0 0 0 0 0 0 0 0 0 0 -0 -0 -0 -0 -0 -0 -0 -0 0 0 0 0 0 0 0 0 0 0 0 0 0 0 0 0 0 0 0 0 0 0 0 0 0
0 0 0 0 0 0 0 0 0 -0 -0 -0 -0 -0 -0 -0 -0 -0 0 0 0 0 0 0 0 0 0 0 0 0 0 0 0 0 0 0 0 0 0 0 0 0 0
0 0 0 0 0 0 0 0 -0 -0 -0 -0 -0 -0 -0 -0 0 0 0 0 0 0 0 0 0 0 0 0 0 0 0 0 0 0 0 0 0 0 0 0 0 0 0
0 0 0 0 0 0 -0 -0 -0 -0 -0 -0 -0 -0 -0 -0 -0 0 0 0 0 0 0 0 0 0 0 0 0 0 0 0 0 0 0 0 0 0 0 0 0 0 0
0 0 0 0 0 0 0 -0 -0 -0 -0 0 0 0 0 0 -0 -0 -0 -0 0 0 0 0 0 0 0 0 0 0 0 0 0 0 0 0 0 0 0 0 0 0 0
0 0 0 0 0 0 0 0 -0 -0 0 0 0 0 0 0 0 0 0 -0 -0 -0 0 0 0 0 0 0 0 0 0 0 0 0 0 0 0 0 1 0 0 0 0
0 0 0 0 0 0 0 -0 -0 -0 0 0 0 0 0 0 0 0 0 0 0 0 0 0 0 0 0 0 0 0 0 0 0 0 0 0 0 0 0 1 0 0 0
0 0 0 0 0 0 -0 -0 -0 -0 0 0 0 0 0 0 0 0 0 0 0 0 0 0 0 0 0 0 0 0 0 0 0 0 0 0 0 0 0 1 1 1 0
0 0 0 0 0 0 -0 -0 -0 0 0 0 0 0 0 0 0 0 0 0 0 0 0 0 0 0 0 0 0 0 -0 0 0 0 0 0 0 0 0 0 1 1 1
0 0 0 0 0 0 0 0 0 0 0 0 0 0 0 0 0 0 0 0 0 0 0 0 0 0 0 0 0 -0 -0 -0 0 0 0 0 0 0 0 0 1 1 1
0 0 0 0 0 0 0 0 0 0 0 0 0 0 0 0 0 0 0 0 0 0 0 0 0 0 0 0 0 0 0 0 -0 0 0 0 0 0 0 0 0 0 1
0 0 0 0 0 0 0 0 0 0 0 0 0 0 0 0 0 0 0 0 0 0 0 0 0 0 0 0 0 0 0 0 0 -0 0 0 0 0 0 0 0 0 0
0 0 0 0 0 0 0 0 0 0 0 0 0 0 0 0 0 0 0 0 0 0 0 0 0 0 0 0 0 0 0 0 0 0 0 0 0 0 0 0 0 0 0
Wind_Speed_500mb
33 36 39 50 48 42 39 8 13 17 17 10 14 10 5 12 8 8 7 7 6 4 7 10 7 8 8 6 8 7 3 4 4 3 4 10 17 18 14 11 10 11 10
27 29 31 43 46 42 31 19 11 12 15 16 12 2 12 4 2 5 2 6 6 8 9 10 9 11 12 10 8 8 8 6 6 2 3 7 11 18 16 11 12 12 10
22 26 32 39 40 38 37 30 22 18 16 15 15 15 11 7 11 8 12 12 9 10 14 13 11 11 11 13 9 13 12 10 7 7 6 6 8 15 19 16 15 13 12
23 23 26 32 35 38 30 26 27 27 25 22 20 19 16 17 12 14 15 11 13 14 8 10 11 9 12 15 16 16 14 15 12 10 10 13 14 15 18 21 19 15 13
18 21 24 26 30 32 32 32 30 30 28 26 22 20 17 20 21 22 20 19 20 20 15 10 6 9 11 14 13 13 14 18 17 15 15 16 17 19 21 21 21 19 17
15 19 20 23 26 28 28 27 30 31 28 24 22 20 18 18 21 25 25 26 28 26 23 22 17 9 14 18 18 18 20 21 20 20 21 20 21 28 29 24 25 20 17
12 17 22 24 22 24 28 31 29 29 31 29 25 23 22 21 22 25 25 30 33 34 30 28 27 23 20 21 22 23 24 25 24 24 26 25 27 29 28 35 29 23 21
12 15 17 19 22 26 26 26 27 29 30 31 30 29 27 25 23 25 29 30 31 32 33 32 32 33 30 28 26 24 28 29 28 28 29 30 33 30 32 38 39 28 23
11 14 17 21 26 28 34 38 36 35 37 36 32 32 33 31 30 29 29 32 35 36 39 39 37 36 37 37 33 32 30 30 32 30 33 34 37 34 33 40 48 35 27
11 15 18 21 24 26 29 34 40 42 40 37 37 37 36 34 35 34 35 35 37 39 40 43 44 44 41 41 40 38 39 36 38 35 39 41 43 36 33 36 53 39 31
9 12 16 20 24 28 31 33 36 38 44 50 48 44 43 43 43 41 40 42 43 43 44 43 45 46 47 46 47 47 43 39 32 38 38 44 46 44 40 35 42 38 35
12 17 21 24 27 30 34 38 43 48 51 53 55 56 55 52 50 51 50 46 46 46 47 47 46 47 46 49 51 52 53 51 50 41 43 49 47 50 48 49 45 43 39
17 20 24 30 36 41 43 47 52 56 59 61 63 64 64 62 56 54 54 54 53 50 50 50 50 49 47 49 52 53 57 60 59 55 47 56 50 55 58 55 53 49 48
17 20 24 28 32 37 43 48 53 58 62 65 67 66 63 60 61 60 56 53 56 56 55 52 51 53 54 51 56 55 60 64 67 66 62 56 58 59 63 64 59 54 55
13 19 25 31 36 42 46 49 52 54 55 54 51 51 55 60 63 62 58 58 55 53 58 58 56 55 56 59 57 62 62 63 68 72 73 65 66 64 67 70 68 61 57
13 18 24 29 34 39 42 47 50 51 52 49 47 47 45 42 43 50 60 61 56 56 54 56 60 60 59 58 64 64 66 71 69 72 79 78 69 71 72 74 77 67 62
7 14 22 30 38 44 48 51 47 47 49 50 52 54 55 52 48 47 43 46 58 62 57 56 56 58 63 64 63 68 70 70 79 75 74 84 82 72 77 78 81 79 69
9 18 27 34 39 41 43 45 45 45 46 47 50 54 57 58 57 51 44 44 46 50 59 53 50 55 59 63 66 67 73 75 78 84 83 77 89 80 71 85 84 85 82
10 19 28 34 39 41 43 43 41 40 42 43 43 43 46 51 54 56 53 48 47 47 46 50 50 49 54 59 63 64 70 77 82 82 86 86 80 90 72 81 88 88 90
11 21 29 37 40 43 44 44 41 42 42 44 42 43 48 43 45 49 51 52 49 43 41 41 47 50 47 50 55 70 75 73 76 84 86 89 93 89 90 82 88 93 89
14 22 32 39 42 44 41 38 37 37 44 42 43 46 43 41 41 42 42 43 45 42 42 42 43 44 46 41 49 52 69 75 77 82 86 84 93 96 87 101 92 97 98
15 25 35 39 39 40 38 40 39 39 43 48 48 46 47 48 50 46 41 40 39 39 41 39 37 41 38 30 38 44 37 49 44 57 51 53 62 91 94 90 104 96 101
15 27 37 39 37 39 41 43 44 44 40 37 38 46 47 50 50 50 47 41 40 38 38 37 36 37 39 36 29 24 20 17 49 41 33 42 51 55 73 106 87 98 101
21 31 37 40 43 40 44 43 42 41 40 41 43 43 48 49 49 49 49 44 40 38 39 38 35 35 37 40 35 30 33 39 24 37 44 50 44 60 73 73 97 93 97
27 32 37 42 43 41 45 45 44 41 39 40 41 44 45 47 45 46 46 45 41 39 39 40 41 39 37 40 39 37 37 39 43 56 62 62 70 60 57 50 68 80 108
27 35 41 41 40 42 42 43 42 42 42 44 45 46 44 44 44 44 42 43 43 43 42 41 41 41 41 42 43 42 42 41 39 41 39 58 67 84 71 65 57 58 62
Wind_Direction_500mb
5 6 8 14 12 20 26 30 19 23 24 38 87 95 25 53 13 341 333 328 311 282 266 256 257 257 225 236 243 277 279 323 1 16 110 143 176 176 171 172 163 160 170
3 5 4 13 14 16 24 33 20 0 351 1 357 352 132 131 133 127 266 284 282 277 270 276 278 267 246 222 251 259 280 303 312 298 201 178 182 195 202 194 169 177 167
17 16 15 16 15 16 18 13 17 26 4 341 325 343 293 204 206 231 209 215 212 270 271 282 284 266 253 228 220 270 273 289 279 274 208 170 201 189 183 180 172 160 148
23 16 20 22 18 12 5 355 359 0 1 354 344 298 314 303 272 261 248 236 238 236 225 277 283 272 257 254 255 220 253 274 265 255 220 195 212 206 194 180 175 164 147
28 21 16 14 17 10 0 357 349 343 351 351 344 330 303 285 302 294 287 279 260 268 267 256 285 277 274 261 252 256 258 256 256 247 220 217 206 231 208 198 188 176 155
30 25 18 7 3 357 356 350 349 348 339 335 338 338 329 310 293 281 291 292 283 275 263 257 244 259 257 262 259 260 259 254 248 245 236 233 221 229 221 211 196 191 175
29 21 14 10 9 360 351 346 339 333 334 338 331 328 324 314 304 301 291 279 280 275 272 263 254 245 235 239 253 256 260 256 248 242 243 245 244 238 225 213 203 199 192
47 37 29 22 14 12 7 357 347 341 332 332 335 330 322 313 304 292 288 291 287 278 272 269 263 261 256 245 243 245 252 256 248 242 245 248 249 242 233 218 211 205 204
47 36 25 16 9 5 1 5 7 1 352 346 333 324 322 319 314 305 293 287 280 282 275 268 265 261 261 262 257 251 240 252 251 247 246 248 251 246 237 226 219 211 204
39 25 19 13 9 8 8 5 360 358 358 352 344 337 326 317 311 305 300 294 287 282 279 271 265 263 260 258 257 253 249 242 247 249 250 247 249 243 239 239 216 208 206
48 36 26 17 11 6 1 357 355 352 350 348 345 338 331 325 318 311 301 292 288 283 280 276 272 265 259 257 255 253 250 247 249 250 250 253 245 240 232 228 220 211 221
49 30 23 17 12 7 3 359 355 352 350 346 341 336 331 327 323 317 310 304 295 288 285 281 276 268 264 257 253 251 250 246 243 237 249 252 246 239 233 230 228 228 229
43 30 20 13 8 5 2 359 355 352 349 344 340 336 333 328 322 317 312 308 303 295 285 280 277 276 269 261 256 253 249 247 244 243 236 252 248 241 236 236 237 233 229
38 24 17 11 6 2 359 356 353 350 347 344 341 336 333 329 326 324 319 312 308 304 299 292 283 278 275 272 261 256 251 250 245 241 243 240 248 241 238 237 238 236 231
37 23 12 6 1 358 355 351 347 344 342 339 336 333 330 328 327 325 321 320 315 305 302 299 293 284 275 272 270 261 256 249 246 243 241 241 245 240 239 237 237 237 234
31 16 8 359 353 349 346 345 345 343 341 339 338 336 334 328 321 316 318 319 316 313 308 301 298 295 285 275 269 268 263 255 251 244 240 241 241 240 238 238 236 235 237
8 357 352 350 349 349 350 350 347 344 342 337 334 333 332 331 329 325 318 309 312 312 311 307 299 293 291 286 278 269 267 262 253 252 244 238 239 245 238 236 236 233 234
8 2 356 352 348 345 343 341 338 333 326 321 320 321 321 323 325 325 322 319 312 306 309 309 307 300 293 290 289 278 269 264 259 252 249 242 238 237 244 234 235 233 231
2 354 350 346 341 337 334 334 333 329 322 317 314 312 310 312 312 314 315 315 317 315 309 306 306 305 301 295 291 287 277 270 263 258 251 246 239 233 239 239 232 235 232
343 345 345 342 337 334 335 334 332 331 325 323 320 319 318 313 308 309 309 310 312 313 312 308 305 303 303 301 296 288 286 277 270 263 257 249 244 234 230 239 236 233 234
330 338 340 339 336 333 333 331 325 323 324 321 318 319 319 317 315 314 310 308 308 308 307 309 307 307 304 307 305 296 285 283 278 268 263 258 246 244 241 236 244 234 234
318 329 334 336 332 327 326 324 322 319 319 319 319 318 315 314 313 312 309 306 303 302 303 304 304 304 304 307 306 307 303 293 271 254 254 254 261 245 242 242 240 239 233
309 321 330 331 327 325 325 322 320 318 315 313 311 311 311 311 309 308 306 301 299 298 297 298 301 301 302 298 296 285 309 297 309 276 257 243 240 239 247 241 237 241 235
301 316 324 326 324 322 323 318 316 313 309 307 307 305 308 307 306 304 303 300 295 292 291 292 292 290 291 292 289 279 268 271 292 304 272 250 241 233 228 228 238 236 237
296 311 317 319 320 319 318 314 312 307 305 304 303 303 302 302 302 301 300 298 293 289 285 283 284 283 280 280 280 281 276 271 270 266 285 286 263 249 234 228 223 224 241
293 307 311 315 317 316 314 311 307 305 305 304 303 302 301 300 299 298 296 294 290 287 285 283 280 278 276 274 274 273 271 268 268 273 278 280 288 270 260 245 244 220 228
Wind_Speed_850mb
33 36 39 50 48 42 39 8 13 17 17 10 14 10 5 12 8 8 7 7 6 4 7 10 7 8 8 6 8 7 3 4 4 3 4 10 17 18 14 11 10 11 10
27 29 31 43 46 42 31 19 11 12 15 16 12 2 12 4 2 5 2 6 6 8 9 10 9 11 12 10 8 8 8 6 6 2 3 7 11 18 16 11 12 12 10
22 26 32 39 40 38 37 30 22 18 16 15 15 15 11 7 11 8 12 12 9 10 14 13 11 11 11 13 9 13 12 10 7 7 6 6 8 15 19 16 15 13 12
23 23 26 32 35 38 30 26 27 27 25 22 20 19 16 17 12 14 15 11 13 14 8 10 11 9 12 15 16 16 14 15 12 10 10 13 14 15 18 21 19 15 13
18 21 24 26 30 32 32 32 30 30 28 26 22 20 17 20 21 22 20 19 20 20 15 10 6 9 11 14 13 13 14 18 17 15 15 16 17 19 21 21 21 19 17
15 19 20 23 26 28 28 27 30 31 28 24 22 20 18 18 21 25 25 26 28 26 23 22 17 9 14 18 18 18 20 21 20 20 21 20 21 28 29 24 25 20 17
12 17 22 24 22 24 28 31 29 29 31 29 25 23 22 21 22 25 25 30 33 34 30 28 27 23 20 21 22 23 24 25 24 24 26 25 27 29 28 35 29 23 21
12 15 17 19 22 26 26 26 27 29 30 31 30 29 27 25 23 25 29 30 31 32 33 32 32 33 30 28 26 24 28 29 28 28 29 30 33 30 32 38 39 28 23
11 14 17 21 26 28 34 38 36 35 37 36 32 32 33 31 30 29 29 32 35 36 39 39 37 36 37 37 33 32 30 30 32 30 33 34 37 34 33 40 48 35 27
11 15 18 21 24 26 29 34 40 42 40 37 37 37 36 34 35 34 35 35 37 39 40 43 44 44 41 41 40 38 39 36 38 35 39 41 43 36 33 36 53 39 31
9 12 16 20 24 28 31 33 36 38 44 50 48 44 43 43 43 41 40 42 43 43 44 43 45 46 47 46 47 47 43 39 32 38 38 44 46 44 40 35 42 38 35
12 17 21 24 27 30 34 38 43 48 51 53 55 56 55 52 50 51 50 46 46 46 47 47 46 47 46 49 51 52 53 51 50 41 43 49 47 50 48 49 45 43 39
17 20 24 30 36 41 43 47 52 56 59 61 63 64 64 62 56 54 54 54 53 50 50 50 50 49 47 49 52 53 57 60 59 55 47 56 50 55 58 55 53 49 48
17 20 24 28 32 37 43 48 53 58 62 65 67 66 63 60 61 60 56 53 56 56 55 52 51 53 54 51 56 55 60 64 67 66 62 56 58 59 63 64 59 54 55
13 19 25 31 36 42 46 49 52 54 55 54 51 51 55 60 63 62 58 58 55 53 58 58 56 55 56 59 57 62 62 63 68 72 73 65 66 64 67 70 68 61 57
13 18 24 29 34 39 42 47 50 51 52 49 47 47 45 42 43 50 60 61 56 56 54 56 60 60 59 58 64 64 66 71 69 72 79 78 69 71 72 74 77 67 62
7 14 22 30 38 44 48 51 47 47 49 50 52 54 55 52 48 47 43 46 58 62 57 56 56 58 63 64 63 68 70 70 79 75 74 84 82 72 77 78 81 79 69
9 18 27 34 39 41 43 45 45 45 46 47 50 54 57 58 57 51 44 44 46 50 59 53 50 55 59 63 66 67 73 75 78 84 83 77 89 80 71 85 84 85 82
10 19 28 34 39 41 43 43 41 40 42 43 43 43 46 51 54 56 53 48 47 47 46 50 50 49 54 59 63 64 70 77 82 82 86 86 80 90 72 81 88 88 90
11 21 29 37 40 43 44 44 41 42 42 44 42 43 48 43 45 49 51 52 49 43 41 41 47 50 47 50 55 70 75 73 76 84 86 89 93 89 90 82 88 93 89
14 22 32 39 42 44 41 38 37 37 44 42 43 46 43 41 41 42 42 43 45 42 42 42 43 44 46 41 49 52 69 75 77 82 86 84 93 96 87 101 92 97 98
15 25 35 39 39 40 38 40 39 39 43 48 48 46 47 48 50 46 41 40 39 39 41 39 37 41 38 30 38 44 37 49 44 57 51 53 62 91 94 90 104 96 101
15 27 37 39 37 39 41 43 44 44 40 37 38 46 47 50 50 50 47 41 40 38 38 37 36 37 39 36 29 24 20 17 49 41 33 42 51 55 73 106 87 98 101
21 31 37 40 43 40 44 43 42 41 40 41 43 43 48 49 49 49 49 44 40 38 39 38 35 35 37 40 35 30 33 39 24 37 44 50 44 60 73 73 97 93 97
27 32 37 42 43 41 45 45 44 41 39 40 41 44 45 47 45 46 46 45 41 39 39 40 41 39 37 40 39 37 37 39 43 56 62 62 70 60 57 50 68 80 108
27 35 41 41 40 42 42 43 42 42 42 44 45 46 44 44 44 44 42 43 43 43 42 41 41 41 41 42 43 42 42 41 39 41 39 58 67 84 71 65 57 58 62
Wind_Direction_850mb
5 6 8 14 12 20 26 30 19 23 24 38 87 95 25 53 13 341 333 328 311 282 266 256 257 257 225 236 243 277 279 323 1 16 110 143 176 176 171 172 163 160 170
3 5 4 13 14 16 24 33 20 0 351 1 357 352 132 131 133 127 266 284 282 277 270 276 278 267 246 222 251 259 280 303 312 298 201 178 182 195 202 194 169 177 167
17 16 15 16 15 16 18 13 17 26 4 341 325 343 293 204 206 231 209 215 212 270 271 282 284 266 253 228 220 270 273 289 279 274 208 170 201 189 183 180 172 160 148
23 16 20 22 18 12 5 355 359 0 1 354 344 298 314 303 272 261 248 236 238 236 225 277 283 272 257 254 255 220 253 274 265 255 220 195 212 206 194 180 175 164 147
28 21 16 14 17 10 0 357 349 343 351 351 344 330 303 285 302 294 287 279 260 268 267 256 285 277 274 261 252 256 258 256 256 247 220 217 206 231 208 198 188 176 155
30 25 18 7 3 357 356 350 349 348 339 335 338 338 329 310 293 281 291 292 283 275 263 257 244 259 257 262 259 260 259 254 248 245 236 233 221 229 221 211 196 191 175
29 21 14 10 9 360 351 346 339 333 334 338 331 328 324 314 304 301 291 279 280 275 272 263 254 245 235 239 253 256 260 256 248 242 243 245 244 238 225 213 203 199 192
47 37 29 22 14 12 7 357 347 341 332 332 335 330 322 313 304 292 288 291 287 278 272 269 263 261 256 245 243 245 252 256 248 242 245 248 249 242 233 218 211 205 204
47 36 25 16 9 5 1 5 7 1 352 346 333 324 322 319 314 305 293 287 280 282 275 268 265 261 261 262 257 251 240 252 251 247 246 248 251 246 237 226 219 211 204
39 25 19 13 9 8 8 5 360 358 358 352 344 337 326 317 311 305 300 294 287 282 279 271 265 263 260 258 257 253 249 242 247 249 250 247 249 243 239 239 216 208 206
48 36 26 17 11 6 1 357 355 352 350 348 345 338 331 325 318 311 301 292 288 283 280 276 272 265 259 257 255 253 250 247 249 250 250 253 245 240 232 228 220 211 221
49 30 23 17 12 7 3 359 355 352 350 346 341 336 331 327 323 317 310 304 295 288 285 281 276 268 264 257 253 251 250 246 243 237 249 252 246 239 233 230 228 228 229
43 30 20 13 8 5 2 359 355 352 349 344 340 336 333 328 322 317 312 308 303 295 285 280 277 276 269 261 256 253 249 247 244 243 236 252 248 241 236 236 237 233 229
38 24 17 11 6 2 359 356 353 350 347 344 341 336 333 329 326 324 319 312 308 304 299 292 283 278 275 272 261 256 251 250 245 241 243 240 248 241 238 237 238 236 231
37 23 12 6 1 358 355 351 347 344 342 339 336 333 330 328 327 325 321 320 315 305 302 299 293 284 275 272 270 261 256 249 246 243 241 241 245 240 239 237 237 237 234
31 16 8 359 353 349 346 345 345 343 341 339 338 336 334 328 321 316 318 319 316 313 308 301 298 295 285 275 269 268 263 255 251 244 240 241 241 240 238 238 236 235 237
8 357 352 350 349 349 350 350 347 344 342 337 334 333 332 331 329 325 318 309 312 312 311 307 299 293 291 286 278 269 267 262 253 252 244 238 239 245 238 236 236 233 234
8 2 356 352 348 345 343 341 338 333 326 321 320 321 321 323 325 325 322 319 312 306 309 309 307 300 293 290 289 278 269 264 259 252 249 242 238 237 244 234 235 233 231
2 354 350 346 341 337 334 334 333 329 322 317 314 312 310 312 312 314 315 315 317 315 309 306 306 305 301 295 291 287 277 270 263 258 251 246 239 233 239 239 232 235 232
343 345 345 342 337 334 335 334 332 331 325 323 320 319 318 313 308 309 309 310 312 313 312 308 305 303 303 301 296 288 286 277 270 263 257 249 244 234 230 239 236 233 234
330 338 340 339 336 333 333 331 325 323 324 321 318 319 319 317 315 314 310 308 308 308 307 309 307 307 304 307 305 296 285 283 278 268 263 258 246 244 241 236 244 234 234
318 329 334 336 332 327 326 324 322 319 319 319 319 318 315 314 313 312 309 306 303 302 303 304 304 304 304 307 306 307 303 293 271 254 254 254 261 245 242 242 240 239 233
309 321 330 331 327 325 325 322 320 318 315 313 311 311 311 311 309 308 306 301 299 298 297 298 301 301 302 298 296 285 309 297 309 276 257 243 240 239 247 241 237 241 235
301 316 324 326 324 322 323 318 316 313 309 307 307 305 308 307 306 304 303 300 295 292 291 292 292 290 291 292 289 279 268 271 292 304 272 250 241 233 228 228 238 236 237
296 311 317 319 320 319 318 314 312 307 305 304 303 303 302 302 302 301 300 298 293 289 285 283 284 283 280 280 280 281 276 271 270 266 285 286 263 249 234 228 223 224 241
293 307 311 315 317 316 314 311 307 305 305 304 303 302 301 300 299 298 296 294 290 287 285 283 280 278 276 274 274 273 271 268 268 273 278 280 288 270 260 245 244 220 228